Location: Chuathbaluk
(61.5726°N, 159.2454°W)
Time: 17:38:36
(UTC+00:00)

NOAA 15 - Pass Details

Date: 19 January 2021
Orbit: 798 x 812 km, 98.7° (Epoch: 05 March)

Event Time Altitude Azimuth Distance (km) Brightness Sun altitude
Rises 16:55:47 0° 21° (NNE) 3,341 7.9 -16.7°
Reaches altitude 10° 16:58:52 10° 40° (NE) 2,407 7.4 -16.4°
Maximum altitude 17:02:34 19° 84° (E) 1,862 7.4 -15.9°
Drops below altitude 10° 17:06:16 10° 128° (SE) 2,401 8.1 -15.5°
Sets 17:09:19 0° 146° (SSE) 3,329 8.6 -15.2°
